CW1768 Weather Reports


Display with metric or nautical units.
time (UTC)temp
F
wind
direction
speed
MPH
gust
MPH
rain 1hr
in
rain 24hr
in
rain mn
in
humidity
%
barometer
mb
20260507010039 59 180 5.0 11.0 0.00 0.15 0.15 83 1004.1
20260507005019 59 180 5.0 9.0 0.00 0.15 0.15 83 1004.2
20260507004019 59 180 6.0 12.0 0.00 0.15 0.15 83 1004.2
20260507003020 59 180 7.0 11.0 0.00 0.15 0.15 83 1004.0
20260507002020 58 180 8.0 12.0 0.00 0.15 0.15 83 1003.9
20260507001019 58 180 8.0 13.0 0.00 0.15 0.15 83 1003.8
20260507000019 58 180 6.0 10.0 0.00 0.15 0.15 83 1003.9
20260506235019 59 180 7.0 11.0 0.00 0.15 0.15 83 1004.0
20260506234019 59 180 7.0 12.0 0.00 0.15 0.15 83 1004.0
20260506233019 59 180 8.0 13.0 0.00 0.15 0.15 82 1003.9
20260506232019 59 180 8.0 11.0 0.00 0.15 0.15 83 1003.9
20260506231019 59 180 8.0 12.0 0.00 0.15 0.15 82 1004.0
20260506230019 59 180 7.0 15.0 0.00 0.15 0.15 82 1004.0
20260506225059 59 180 6.0 11.0 0.00 0.15 0.15 83 1004.1
20260506224019 60 180 7.0 12.0 0.00 0.15 0.15 83 1003.9
20260506223019 60 180 8.0 11.0 0.01 0.15 0.15 83 1004.1
20260506222019 60 180 7.0 12.0 0.01 0.15 0.15 83 1004.1
20260506221019 60 180 7.0 11.0 0.01 0.15 0.15 83 1004.2
20260506220039 60 180 9.0 14.0 0.01 0.15 0.15 83 1004.3
20260506215019 60 180 8.0 13.0 0.01 0.15 0.15 83 1004.4
20260506214028 60 180 8.0 12.0 0.01 0.15 0.15 83 1004.5
20260506213119 60 180 8.0 13.0 0.01 0.14 0.14 83 1004.6
20260506212019 60 158 7.0 12.0 0.02 0.14 0.14 83 1004.6
20260506211019 60 180 7.0 12.0 0.03 0.14 0.14 83 1004.7
20260506210039 60 180 7.0 12.0 0.03 0.14 0.14 83 1004.8
20260506205019 60 180 7.0 12.0 0.03 0.14 0.14 82 1005.0
20260506204019 60 180 6.0 12.0 0.04 0.14 0.14 81 1005.1
20260506203039 60 158 6.0 11.0 0.03 0.13 0.13 80 1004.9
20260506202059 60 158 6.0 12.0 0.02 0.12 0.12 79 1004.9
20260506201019 60 180 3.0 6.0 0.01 0.11 0.11 76 1005.0
20260506200019 60 180 3.0 5.0 0.02 0.11 0.11 75 1005.0
20260506195039 60 180 3.0 5.0 0.03 0.11 0.11 74 1005.1
20260506194059 60 180 4.0 6.0 0.03 0.10 0.10 74 1005.2
20260506193019 60 180 5.0 8.0 0.05 0.10 0.10 74 1005.4
20260506192019 60 180 6.0 10.0 0.06 0.10 0.10 74 1005.6
20260506191019 61 180 4.0 8.0 0.07 0.10 0.10 74 1005.8
20260506190019 61 180 3.0 7.0 0.07 0.09 0.09 73 1005.9
20260506185019 61 180 3.0 6.0 0.07 0.08 0.08 72 1005.8
20260506184019 61 203 3.0 6.0 0.06 0.07 0.07 70 1006.0
20260506183019 62 203 3.0 6.0 0.04 0.05 0.05 68 1006.1
20260506182019 62 203 3.0 6.0 0.03 0.04 0.04 67 1006.2
20260506181018 63 248 1.0 5.0 0.02 0.03 0.03 65 1006.3
20260506180019 65 225 3.0 7.0 0.01 0.02 0.02 62 1006.3
20260506175018 66 203 4.0 9.0 0.00 0.01 0.01 58 1006.0
20260506174019 67 203 6.0 14.0 0.00 0.01 0.01 56 1005.8
20260506173019 67 180 10.0 16.0 0.00 0.01 0.01 55 1005.8
20260506172039 67 180 10.0 18.0 0.00 0.01 0.01 52 1005.8
20260506171059 68 180 8.0 12.0 0.00 0.01 0.01 53 1005.8
20260506170039 67 180 7.0 13.0 0.00 0.01 0.01 54 1006.0
20260506165021 67 180 6.0 10.0 0.00 0.01 0.01 55 1006.2
20260506164019 67 180 5.0 12.0 0.01 0.01 0.01 55 1006.3
20260506163018 67 180 4.0 9.0 0.01 0.01 0.01 55 1006.7
20260506162019 66 180 4.0 6.0 0.01 0.01 0.01 57 1007.0
20260506161019 66 180 4.0 9.0 0.01 0.01 0.01 56 1007.3
20260506160019 66 180 6.0 11.0 0.01 0.01 0.01 57 1007.6
20260506155018 65 180 6.0 12.0 0.01 0.01 0.01 58 1007.6
20260506154018 65 180 6.0 11.0 0.00 0.00 0.00 58 1007.9
20260506153019 65 158 6.0 11.0 0.00 0.00 0.00 58 1007.9
20260506152019 66 203 5.0 13.0 0.00 0.00 0.00 57 1007.7
20260506151019 66 203 6.0 12.0 0.00 0.00 0.00 57 1007.7
20260506150018 65 180 4.0 9.0 0.00 0.00 0.00 58 1007.9
20260506145018 65 180 5.0 9.0 0.00 0.00 0.00 59 1007.7
20260506144018 64 180 5.0 8.0 0.00 0.00 0.00 59 1007.6
20260506143018 64 180 5.0 8.0 0.00 0.00 0.00 60 1007.7
20260506142018 64 180 4.0 8.0 0.00 0.00 0.00 60 1007.6
20260506141018 63 180 4.0 8.0 0.00 0.00 0.00 60 1007.6
20260506140018 63 180 3.0 5.0 0.00 0.00 0.00 61 1007.7
20260506135038 63 180 4.0 7.0 0.00 0.00 0.00 61 1007.8
20260506134019 62 180 4.0 8.0 0.00 0.00 0.00 61 1008.0
20260506133018 62 180 3.0 5.0 0.00 0.00 0.00 62 1008.2
20260506132018 61 180 3.0 6.0 0.00 0.00 0.00 62 1008.0
20260506131039 61 180 5.0 8.0 0.00 0.00 0.00 62 1008.2
20260506130019 61 180 6.0 9.0 0.00 0.00 0.00 62 1008.0
20260506125019 61 180 5.0 8.0 0.00 0.00 0.00 62 1008.0
20260506124018 61 180 4.0 8.0 0.00 0.00 0.00 62 1008.1
20260506123018 61 180 4.0 7.0 0.00 0.00 0.00 62 1008.2
20260506122020 61 180 3.0 6.0 0.00 0.00 0.00 62 1008.1
20260506121018 60 180 4.0 7.0 0.00 0.00 0.00 62 1008.1
20260506120020 60 158 3.0 6.0 0.00 0.00 0.00 63 1008.2
20260506115018 59 180 1.0 4.0 0.00 0.00 0.00 63 1008.4
20260506114019 59 180 1.0 2.0 0.00 0.00 0.00 63 1008.5
20260506113018 59 180 2.0 5.0 0.00 0.00 0.00 63 1008.3
20260506112018 59 180 3.0 6.0 0.00 0.00 0.00 63 1008.8
20260506111020 59 180 4.0 6.0 0.00 0.00 0.00 63 1009.1
20260506110018 59 180 5.0 8.0 0.00 0.00 0.00 63 1009.0
20260506105018 59 180 4.0 9.0 0.00 0.00 0.00 62 1009.1
20260506104018 58 180 4.0 7.0 0.00 0.00 0.00 63 1008.8
20260506103022 59 180 5.0 8.0 0.00 0.00 0.00 62 1008.8
20260506102020 58 180 5.0 8.0 0.00 0.00 0.00 63 1008.9
20260506101020 58 158 7.0 9.0 0.00 0.00 0.00 63 1008.6
20260506100038 57 180 3.0 6.0 0.00 0.00 0.00 64 1008.7
20260506095020 57 180 3.0 5.0 0.00 0.00 0.00 62 1008.8
20260506094020 58 180 3.0 5.0 0.00 0.00 0.00 61 1008.6
20260506093018 59 180 3.0 6.0 0.00 0.00 0.00 60 1008.8
20260506092020 59 180 3.0 6.0 0.00 0.00 0.00 61 1008.7
20260506091018 59 180 4.0 7.0 0.00 0.00 0.00 60 1008.4
20260506090020 59 180 5.0 9.0 0.00 0.00 0.00 60 1008.7
20260506085020 59 180 5.0 9.0 0.00 0.00 0.00 61 1008.8
20260506084020 59 180 4.0 7.0 0.00 0.00 0.00 61 1008.6
20260506083020 59 180 4.0 7.0 0.00 0.00 0.00 61 1008.6
20260506082038 59 180 4.0 6.0 0.00 0.00 0.00 60 1008.4
20260506081058 59 180 3.0 4.0 0.00 0.00 0.00 62 1008.5
20260506073020 59 0.0 2.0 0.00 0.00 0.00 62 1008.6
20260506072020 60 180 2.0 5.0 0.00 0.00 0.00 61 1008.6
20260506071019 60 180 3.0 6.0 0.00 0.00 0.00 60 1008.4
20260506062020 57 158 1.0 4.0 0.00 0.00 0.00 65 1007.9
20260506061020 58 0.0 2.0 0.00 0.00 0.00 64 1007.9
20260506051020 61 180 4.0 7.0 0.00 0.00 0.00 60 1008.2
20260506045019 61 180 4.0 7.0 0.00 0.00 0.00 61 1008.2
20260506044020 60 180 2.0 4.0 0.00 0.00 0.00 63 1008.2
20260506043020 61 180 2.0 3.0 0.00 0.00 0.00 63 1008.2
20260506042020 61 180 1.0 3.0 0.00 0.00 0.00 62 1008.1
20260506041020 61 180 2.0 4.0 0.00 0.00 0.00 62 1008.1
20260506040019 62 180 2.0 4.0 0.00 0.00 0.00 61 1008.2
20260506035019 62 180 3.0 6.0 0.00 0.00 0.00 61 1008.4
20260506034020 62 203 3.0 6.0 0.00 0.00 0.00 61 1008.2
20260506033019 62 203 2.0 4.0 0.00 0.00 0.00 61 1008.3
20260506032020 62 180 4.0 8.0 0.00 0.00 0.00 62 1007.9
20260506031020 62 180 4.0 6.0 0.00 0.00 0.00 62 1007.9
20260506030019 61 180 3.0 5.0 0.00 0.00 0.00 63 1008.0
20260506025019 61 180 2.0 3.0 0.00 0.00 0.00 63 1007.8
20260506024019 61 180 1.0 2.0 0.00 0.00 0.00 63 1007.8
20260506023019 62 180 2.0 4.0 0.00 0.00 0.00 62 1007.8
20260506022019 62 180 3.0 5.0 0.00 0.00 0.00 62 1008.0
20260506021019 62 180 2.0 4.0 0.00 0.00 0.00 61 1008.2
20260506020059 62 180 3.0 6.0 0.00 0.00 0.00 62 1008.5
20260506015019 62 158 4.0 6.0 0.00 0.00 0.00 62 1008.3
20260506014039 63 225 2.0 5.0 0.00 0.00 0.00 60 1008.2
20260506013019 64 225 1.0 3.0 0.00 0.00 0.00 59 1008.2
20260506012019 64 225 2.0 10.0 0.00 0.00 0.00 58 1008.2
20260506011019 65 225 2.0 4.0 0.00 0.00 0.00 56 1008.5